STARLINK-32493, 62025

Orbit data source: Space-Track

STARLINK-32493, 62025 is a payload satellite owned by SpaceX/Seattle (US) in LEO that was launched on Mon, 18 Nov 2024 UTC via an FALCON 9 launch vehicle from the Air Force Western Test Range (AFWTR). Payload-class satellites include a variety of spacecraft equipped with specific instruments for various scientific and technological missions. These include communications satellites like Starlink; space stations such as the ISS; scientific satellites like the Hubble; Earth observation satellites from companies like Planet Labs, Umbra, and HawkEye 360; GPS; miniature CubeSats for education and research; and military/defense satellites.

Loading next visibility...
Identifier
62025, 2024-213T
Orbit
LEO
Last TLE update
13 hours ago
Origin
Manufacturer
SpaceX/Seattle
Mission
Operational Commercial Communications
Bus & Motor
STARLINK V2M, Unknown motor
Mass
730 kg wet, ~700 kg dry
Launch date (UTC)
2024-11-18 (8 months ago)
Launch vehicle
FALCON 9
Launch site
Air Force Western Test Range (AFWTR)
Object type
Payload
Rocket body
Debris
Shape & HBR
Box + 2 Pan, 29 m
Radar Cross Section
36.964 m², Large (>1 m²)

Expand to show TLE details & history

TLE from 13 hours ago
0 STARLINK-32493
1 62025U 24213T   25186.35771733  .00013397  00000-0  46366-3 0  9996
2 62025  53.1564 237.2046 0001107  85.0339 275.0788 15.30196589 35284
Epoch: 2025-07-05T08:35Z
TLE epoch observation values (Epoch: 2025-07-05T08:35:06.777Z)
Latitude
-0.00002°
Longitude
-175.17057°
Altitude
476.057 km
Speed
7.629 km/s
True Right ascension
15h 48m 49s
True Declination
0° 00' 00"
Sunlit
Object was in full shadow at epoch
Visualization orbit readout
Latitude
-13.17251°
Longitude
12.27947°
Altitude
478.965 km
Speed
7.626 km/s
Apparent Right ascension
01h 45m 27s
Apparent Declination
-35° 34' 21"
Sunlit
Object is in daylight
Visualization observer readout
Local Sidereal Time
09:54:54
Azimuth
256.353° W
Elevation
-45.009°
Doppler factor
1
Orbital elements
Apogee altitude
476.241 km
Perigee altitude
474.724 km
Semi-major axis
6,853.619 km
Eccentricity
0.00011
Inclination
53.1564°
RAAN
237.2046°
Arg. of periapsis
85.0339°
True anomaly
Unknown
Mean anomaly
275.0788°
Eccentric anomaly
Unknown
Mean motion
3.82528 °/min
Orbital period
94.11 mins
BSTAR
0.00046366
Loading maneuver chart data...
Loading SW <> Apogee altitude chart data...
Loading historical data...
Loading historical data...
Loading historical data...
Loading historical data...
Loading historical data...
Loading historical data...
Loading historical data...

STARLINK-32493 Visibility forecast

Observer location: undefined°, undefined°

Span
Click to sort rows by Start time (UTC) header in descending order
Start Az.
Max El. time (UTC)
Max El. Az.
Max El.
End time (UTC)
End Az.
5 mins2025-07-06 05:06:47.859Z181.548° SSW2025-07-06 05:09:47.859Z122.922° SE21.235°2025-07-06 05:11:47.859Z83.644° E
5 mins2025-07-06 06:44:47.859Z260.833° W2025-07-06 06:46:47.859Z304.478° NW32.443°2025-07-06 06:49:47.859Z32.148° NE
4 mins2025-07-06 11:42:47.859Z353.28° N2025-07-06 11:43:47.859Z17.63° NNE23.089°2025-07-06 11:46:47.859Z81.69° E
5 mins2025-07-06 13:19:47.859Z292.596° NW2025-07-06 13:21:47.859Z247.365° WSW34.809°2025-07-06 13:24:47.859Z156.371° SSE
|